COSMOS 2476 (744)

Last updated on Tue Jan 14 2025 00:03:10 GMT+0000 (Coordinated Universal Time)

1 37867U 11064A 25013.48346413 -.00000021 00000+0 00000+0 0 9999 2 37867 64.9832 90.4568 0024276 236.5154 109.5179 2.13101481102684
UTC large
Height (km)
Speed (km/s)
/
Latitude / Longitude
Inclination (degrees)
Orbital Period (minutes)
Azimuth
Elevation
Range (km)
Doppler Factor

Next 0 passes for location: London (51.5072 / 0.1276)

Sorry there are no passes over London.